[Iaude] MPEC F146: 2019 FO1 [a=2.62,e=0.62,i=3.8,H=25.6]

mpec at mpcdb1.cfa.harvard.edu mpec at mpcdb1.cfa.harvard.edu
Sun Mar 31 18:41:17 EDT 2019


M.P.E.C. 2019-F146                               Issued 2019 Mar. 31, 22:38 UT
 
     The Minor Planet Electronic Circulars contain information on unusual
         minor planets and routine data on comets.  They are published
    on behalf of Division F of the International Astronomical Union by the
          Minor Planet Center, Smithsonian Astrophysical Observatory,
                          Cambridge, MA 02138, U.S.A.

             Prepared using the Tamkin Foundation Computer Network

                              MPC at CFA.HARVARD.EDU
            URL https://www.minorplanetcenter.net/    ISSN 1523-6714


                                   2019 FO1
 
Observations:
     K19F01O* C2019 03 29.23069 11 41 34.66 +01 20 15.6          21.2 GVEF146G96
     K19F01O  C2019 03 29.23627 11 41 36.14 +01 20 21.1          21.2 GVEF146G96
     K19F01O  C2019 03 29.24185 11 41 37.53 +01 20 27.5          21.0 GVEF146G96
     K19F01O KC2019 03 29.28251 11 41 47.63 +01 21 12.5                oEF146711
     K19F01O KC2019 03 29.28580 11 41 48.51 +01 21 16.1                oEF146711
     K19F01O KC2019 03 29.28920 11 41 49.39 +01 21 19.8                oEF146711
     K19F01O  C2019 03 29.33108 11 42 00.99 +01 22 01.4          20.8 GVEF146I52
     K19F01O  C2019 03 29.33413 11 42 01.80 +01 22 04.5          20.8 GVEF146I52
     K19F01O  C2019 03 29.34024 11 42 03.41 +01 22 10.8          21.3 GVEF146I52
     K19F01O  C2019 03 29.91496 11 45 02.48 +01 32 16.1          20.9 VVEF146033
     K19F01O  C2019 03 29.91847 11 45 03.48 +01 32 20.0          21.0 VVEF146033
     K19F01O  C2019 03 29.92199 11 45 04.52 +01 32 24.0          21.0 VVEF146033
     K19F01O  C2019 03 29.92549 11 45 05.59 +01 32 27.9          21.0 VVEF146033
     K19F01O  C2019 03 29.92901 11 45 06.61 +01 32 31.9          20.7 VVEF146033
     K19F01O  C2019 03 29.93252 11 45 07.56 +01 32 35.6          21.3 VVEF146033
     K19F01O KC2019 03 29.97204511 45 20.15 +01 33 19.5          20.7 GVEF146J95
     K19F01O KC2019 03 29.97964411 45 22.44 +01 33 27.6          20.4 GVEF146J95
     K19F01O  C2019 03 29.98537 11 45 23.20 +01 33 35.5          20.3 VVEF146033
     K19F01O  C2019 03 29.98885 11 45 24.24 +01 33 39.4          20.9 VVEF146033
     K19F01O  C2019 03 29.99233 11 45 25.30 +01 33 43.5          20.5 VVEF146033
     K19F01O KC2019 03 29.99460611 45 26.82 +01 33 45.7          20.8 GVEF146J95
     K19F01O  C2019 03 29.99581 11 45 26.34 +01 33 47.1          21.1 VVEF146033
     K19F01O  C2019 03 29.99928 11 45 27.33 +01 33 50.8          21.4 VVEF146033
     K19F01O  C2019 03 30.18796411 46 32.84 +01 37 48.7          21.1 GVEF146H01
     K19F01O IC2019 03 30.18944 11 46 33.08 +01 37 55.5                oEF146711
     K19F01O  C2019 03 30.19228911 46 34.13 +01 37 53.6          20.9 GVEF146H01
     K19F01O KC2019 03 30.19240 11 46 33.97 +01 37 58.9                oEF146711
     K19F01O KC2019 03 30.19535 11 46 34.84 +01 38 02.4                oEF146711
     K19F01O KC2019 03 30.19791 11 46 35.59 +01 38 05.3                oEF146711
     K19F01O  C2019 03 30.20681811 46 38.49 +01 38 10.7          20.6 GVEF146H01
     K19F01O  C2019 03 30.21192411 46 40.02 +01 38 16.5          21.0 GVEF146H01
     K19F01O  C2019 03 30.32394 11 47 13.85 +01 40 29.5                VEF146I52
     K19F01O  C2019 03 30.32622 11 47 14.55 +01 40 32.0          20.9 GVEF146I52
     K19F01O  C2019 03 30.32852 11 47 15.29 +01 40 35.6          22.0 GVEF146I52
     K19F01O  C2019 03 30.33080 11 47 15.96 +01 40 37.1                VEF146I52
     K19F01O  C2019 03 30.81822 11 50 09.27 +01 50 02.3          21.5 VVEF146033
     K19F01O  C2019 03 30.82119 11 50 10.30 +01 50 05.5          22.0 VVEF146033
     K19F01O  C2019 03 30.82416 11 50 11.30 +01 50 09.5          21.9 VVEF146033
     K19F01O  C2019 03 30.82713 11 50 12.30 +01 50 13.4          21.5 VVEF146033
     K19F01O  C2019 03 30.83009 11 50 13.28 +01 50 17.0          21.2 VVEF146033
     K19F01O KC2019 03 30.85348011 50 21.24 +01 50 53.0          21.2 GVEF146L01
     K19F01O KC2019 03 30.85585811 50 22.05 +01 50 56.0          21.1 GVEF146L01
     K19F01O KC2019 03 30.85866711 50 22.96 +01 50 59.4          21.0 GVEF146L01
     K19F01O KC2019 03 30.86597711 50 25.40 +01 51 08.7          21.0 GVEF146L01
     K19F01O  C2019 03 30.89922 11 50 36.49 +01 51 43.6          21.4 VVEF146033
     K19F01O  C2019 03 30.90221 11 50 37.48 +01 51 47.2          21.3 VVEF146033
     K19F01O  C2019 03 30.90521 11 50 38.46 +01 51 50.9          21.4 VVEF146033
     K19F01O  C2019 03 30.90819 11 50 39.44 +01 51 54.6          21.6 VVEF146033
     K19F01O  C2019 03 30.91119 11 50 40.44 +01 51 58.1          21.9 VVEF146033
     K19F01O  C2019 03 31.27684 11 52 55.16 +02 00 11.1          20.6 GVEF146I52
     K19F01O  C2019 03 31.27850 11 52 55.74 +02 00 12.9          20.9 GVEF146I52
     K19F01O  C2019 03 31.28017 11 52 56.31 +02 00 15.5          20.8 GVEF146I52
     K19F01O  C2019 03 31.28184 11 52 56.90 +02 00 17.5          20.8 GVEF146I52
 
Observer details:
033 Karl Schwarzschild Observatory, Tautenburg.  Observers U. Laux,
    B. Stecklum.  Measurer B. Stecklum.  1.34-m f/3 Schmidt + CCD.
711 McDonald Observatory, Fort Davis.  Observer J. G. Ries.  2.1-m reflector
    + CCD + focal reducer.
G96 Mt. Lemmon Survey.  Observer B. M. Africano.  Measurers B. M. Africano,
    E. J. Christensen, G. A. Farneth, D. C. Fuls, A. R. Gibbs, A. D. Grauer,
    H. Groeller, R. A. Kowalski, S. M. Larson, G. J. Leonard, T. A. Pruyne,
    R. L. Seaman, F. C. Shelly.  1.5-m reflector + 10K CCD.
H01 Magdalena Ridge Observatory, Socorro.  Observers W. H. Ryan, E. V. Ryan.
    Measurer W. H. Ryan.  2.4-m f/8.9 Ritchey-Chretien + CCD.
I52 Steward Observatory, Mt. Lemmon Station.  Observer H. Groeller.
    Measurers B. M. Africano, E. J. Christensen, G. A. Farneth, D. C. Fuls,
    A. R. Gibbs, A. D. Grauer, H. Groeller, R. A. Kowalski, S. M. Larson,
    G. J. Leonard, T. A. Pruyne, R. L. Seaman, F. C. Shelly.  1.0-m reflector
    + CCD.
J95 Great Shefford.  Observer P. Birtwhistle.  0.41-m f/6.3
    Schmidt-Cassegrain + CCD.
L01 Visnjan Observatory, Tican.  Observers K. Korlevic, F. Valentine.
    Measurer K. Korlevic.  1.0-m f/2.9 reflector + CCD.
 
Orbital elements:
2019 FO1                                                 Earth MOID = 0.0278 AU
Epoch 2019 Apr. 27.0 TT = JDT 2458600.5                 MPC
M 359.12034              (2000.0)            P               Q
n   0.23242064     Peri.   37.59458     -0.70482511     +0.70932801
a   2.6199093      Node   187.60404     -0.66572550     -0.66562634
e   0.6172636      Incl.    3.76086     -0.24501249     -0.23193823
P   4.24           H   25.6           G   0.15           U   7
Residuals in seconds of arc
190329 G96  0.2-  0.1+    190329 033  0.1+  0.2+    190330 033  0.6+  0.2-
190329 G96  0.1+  0.3-    190329 033  0.5+  0.3+    190330 033  0.5+  0.1+
190329 G96  1.0-  0.2+    190329 J95  0.4-  0.4+    190330 033  0.5+  0.2+
190329 711  0.4+  0.0     190329 033  0.5+  0.0     190330 033  0.2+  0.2+
190329 711  0.7+  0.2+    190329 033  0.1-  0.2-    190330 L01  0.1-  0.0
190329 711  0.6+  0.3+    190330 H01  0.0   0.1+    190330 L01  0.2+  0.1+
190329 I52  0.2-  0.1+    190330 711  0.3-  0.3+    190330 L01  0.2-  0.0
190329 I52  0.2-  0.0     190330 H01  0.1-  0.1-    190330 L01  0.0   0.1+
190329 I52  0.4-  0.2-    190330 711  0.2-  0.3+    190330 033  0.2+  0.3+
190329 033  0.4+  0.3+    190330 711  0.3-  0.3+    190330 033  0.0   0.1+
190329 033  0.0   0.2+    190330 711  0.5-  0.3+    190330 033  0.4-  0.0
190329 033  0.1+  0.2+    190330 H01  0.1+  0.1+    190330 033  0.6-  0.0
190329 033  0.7+  0.2+    190330 H01  0.1+  0.1-    190330 033  0.7-  0.3-
190329 033  0.5+  0.2+    190330 I52  0.4-  0.3-    190331 I52  0.2-  0.0
190329 033  0.7-  0.0     190330 I52  0.2-  0.5-    190331 I52  0.0   0.3-
190329 J95  0.2-  0.2-    190330 I52  0.5+  0.4+    190331 I52  0.0   0.1+
190329 J95  0.4+  0.7-    190330 I52  0.2+  0.8-    190331 I52  0.2+  0.1-
190329 033  0.0   0.2+    190330 033  0.2+  0.3+

Ephemeris:
2019 FO1                 a,e,i = 2.62, 0.62, 4                   q = 1.0027
Date    TT    R. A. (2000) Decl.     Delta      r     Elong.  Phase     V
2019 03 01    10 57 28.5 -01 23 33   0.2886  1.2761   170.3     7.5    24.0
...
2019 03 16    11 07 47.4 -00 51 01   0.1776  1.1704   171.2     7.5    22.7
...
2019 03 24    11 22 29.0 +00 09 32   0.1269  1.1212   168.0    10.7    22.0
...
2019 03 30    11 45 28.8 +01 35 03   0.09222 1.0886   167.3    11.6    21.3
2019 03 31    11 51 11.7 +01 55 05   0.08675 1.0836   167.5    11.5    21.2
2019 04 01    11 57 42.3 +02 17 27   0.08139 1.0787   167.7    11.4    21.0
...
2019 04 07    13 04 20.4 +05 43 30   0.05253 1.0522   167.7    11.7    20.0
...
2019 04 15    16 55 16.1 +11 36 34   0.03748 1.0250   125.0    53.3    20.5
...
2019 04 30    20 42 15.5 +06 32 59   0.09681 1.0028    84.7    89.8    23.7

A. U. Tomatic                (C) Copyright 2019 MPC           M.P.E.C. 2019-F146



More information about the Iaude mailing list